Weather History for Austin, MN

Change the Weather History Date:

Tuesday, June 18, 2013

  Actual Average Record
Temperature  
Mean Temperature 67 °F -  
Max Temperature 75 °F 75 °F 89 °F (2001)
Min Temperature 59 °F 56 °F 53 °F (1999)
Cooling Degree Days 2    
Growing Degree Days 17 (Base 50)    
Moisture  
Dew Point 57 °F    
Average Humidity 70    
Maximum Humidity 88    
Minimum Humidity 47    
Precipitation  
Precipitation 0.18 in - - ()
Sea Level Pressure  
Sea Level Pressure 30.04 in    
Wind  
Wind Speed 4 mph (East)    
Max Wind Speed 16 mph    
Max Gust Speed 22 mph    
Visibility 10 miles    
Events Rain , Thunderstorm    
Averages and records for this station are not official NWS values.
T = Trace of Precipitation, MM = Missing Value Source: NWS Daily Summary

Daily Weather History Graph

Daily Weather History Graph

Search for Another Location

Airport:

Trip Planner

Search our weather history database for the weather conditions in past years. The results will help you decide how hot, cold, wet, or windy it might be!

Date:

Astronomy

Jun. 18, 2013 Rise Set
Actual Time 5:29 AM CDT 8:56 PM CDT
Civil Twilight 4:53 AM CDT 9:32 PM CDT
Nautical Twilight 4:06 AM CDT 10:19 PM CDT
Astronomical Twilight 3:06 AM CDT 11:19 PM CDT
Moon 3:34 PM CDT 1:46 AM CDT
Length of Visible Light 16h 38m
Length of Day
15h 26m
Waxing Gibbous, 71% of the Moon is Illuminated
Jun 18
Waxing Gibbous
Jun 23
Full
Jun 29
Last Quarter
Jul 8
New
Jul 15
First Quarter

Hourly Weather History & Observations

Time (CDT) Temp. Dew Point Humidity Pressure Visibility Wind Dir Wind Speed Gust Speed Precip Events Conditions
12:15 AM 64.4 °F 57.2 °F 77% 29.98 in 10.0 mi Calm Calm - N/A   Scattered Clouds
12:36 AM 62.6 °F 57.2 °F 82% 29.98 in 10.0 mi Calm Calm - N/A   Mostly Cloudy
12:56 AM 64.4 °F 57.2 °F 77% 29.98 in 10.0 mi North 3.5 mph - N/A   Mostly Cloudy
1:15 AM 64.4 °F 57.2 °F 77% 29.98 in 10.0 mi Calm Calm - N/A   Scattered Clouds
1:36 AM 64.4 °F 57.2 °F 77% 29.98 in 10.0 mi NNE 3.5 mph - N/A   Scattered Clouds
1:56 AM 64.4 °F 57.2 °F 77% 29.98 in 10.0 mi NNE 3.5 mph - N/A   Scattered Clouds
2:15 AM 64.4 °F 57.2 °F 77% 29.98 in 10.0 mi NNE 3.5 mph - N/A   Clear
2:36 AM 62.6 °F 55.4 °F 77% 29.99 in 10.0 mi NNE 3.5 mph - N/A   Clear
2:56 AM 62.6 °F 55.4 °F 77% 29.99 in 10.0 mi NNE 3.5 mph - N/A   Clear
3:16 AM 62.6 °F 55.4 °F 77% 29.99 in 10.0 mi NNE 4.6 mph - N/A   Clear
3:36 AM 62.6 °F 55.4 °F 77% 29.99 in 10.0 mi NNE 4.6 mph - N/A   Clear
3:56 AM 62.6 °F 55.4 °F 77% 29.99 in 10.0 mi NNE 3.5 mph - N/A   Clear
4:16 AM 60.8 °F 57.2 °F 88% 30.00 in 10.0 mi North 3.5 mph - N/A   Clear
4:36 AM 60.8 °F 55.4 °F 82% 30.00 in 10.0 mi Calm Calm - N/A   Clear
4:56 AM 60.8 °F 55.4 °F 82% 30.01 in 10.0 mi NNE 3.5 mph - N/A   Scattered Clouds
5:16 AM 60.8 °F 55.4 °F 82% 30.02 in 10.0 mi NNE 3.5 mph - N/A   Mostly Cloudy
5:36 AM 60.8 °F 55.4 °F 82% 30.02 in 10.0 mi NE 3.5 mph - N/A   Mostly Cloudy
5:56 AM 62.6 °F 57.2 °F 82% 30.03 in 10.0 mi NE 4.6 mph - N/A   Overcast
6:15 AM 62.6 °F 57.2 °F 82% 30.03 in 10.0 mi NE 5.8 mph - N/A   Mostly Cloudy
6:36 AM 62.6 °F 57.2 °F 82% 30.06 in 10.0 mi NW 16.1 mph 21.9 mph N/A   Mostly Cloudy
6:56 AM 60.8 °F 55.4 °F 82% 30.07 in 7.0 mi NW 10.4 mph 21.9 mph N/A Rain , Thunderstorm Heavy Thunderstorms and Rain
7:16 AM 59.0 °F 55.4 °F 88% 30.08 in 7.0 mi West 5.8 mph - 0.08 in Rain , Thunderstorm Heavy Thunderstorms and Rain
7:36 AM 60.8 °F 57.2 °F 88% 30.07 in 10.0 mi ENE 6.9 mph - 0.16 in Rain , Thunderstorm Light Thunderstorms and Rain
7:56 AM 60.8 °F 57.2 °F 88% 30.06 in 10.0 mi ENE 6.9 mph - N/A Rain Light Rain
8:15 AM 60.8 °F 57.2 °F 88% 30.06 in 10.0 mi ENE 8.1 mph - N/A Rain Rain
8:36 AM 60.8 °F 57.2 °F 88% 30.05 in 10.0 mi East 8.1 mph - 0.02 in Rain Light Rain
8:56 AM 62.6 °F 57.2 °F 82% 30.04 in 10.0 mi East 11.5 mph - N/A Rain Light Rain
9:16 AM 62.6 °F 59.0 °F 88% 30.04 in 10.0 mi East 12.7 mph 17.3 mph N/A   Clear
9:36 AM 62.6 °F 59.0 °F 88% 30.06 in 10.0 mi East 4.6 mph - N/A   Scattered Clouds
9:56 AM 64.4 °F 59.0 °F 83% 30.06 in 10.0 mi East 4.6 mph - N/A   Scattered Clouds
10:16 AM 66.2 °F 59.0 °F 78% 30.06 in 10.0 mi East 5.8 mph - N/A   Scattered Clouds
10:35 AM 66.2 °F 59.0 °F 78% 30.06 in 10.0 mi East 3.5 mph - N/A   Scattered Clouds
10:56 AM 68.0 °F 57.2 °F 68% 30.06 in 10.0 mi ESE 8.1 mph - N/A   Scattered Clouds
11:16 AM 69.8 °F 57.2 °F 64% 30.07 in 10.0 mi ESE 6.9 mph - N/A   Scattered Clouds
11:35 AM 69.8 °F 59.0 °F 68% 30.07 in 10.0 mi ESE 4.6 mph - N/A   Clear
11:56 AM 69.8 °F 57.2 °F 64% 30.07 in 10.0 mi East 6.9 mph - N/A   Scattered Clouds
12:16 PM 71.6 °F 57.2 °F 60% 30.07 in 10.0 mi SE 6.9 mph - N/A   Scattered Clouds
12:35 PM 71.6 °F 57.2 °F 60% 30.07 in 10.0 mi Calm Calm - N/A   Scattered Clouds
12:56 PM 71.6 °F 55.4 °F 57% 30.07 in 10.0 mi Calm Calm - N/A   Scattered Clouds
1:16 PM 71.6 °F 59.0 °F 64% 30.07 in 10.0 mi ESE 5.8 mph - N/A   Mostly Cloudy
1:35 PM 73.4 °F 57.2 °F 57% 30.07 in 10.0 mi SE 5.8 mph - N/A   Mostly Cloudy
1:56 PM 73.4 °F 57.2 °F 57% 30.06 in 10.0 mi SE 3.5 mph - N/A   Clear
2:16 PM 73.4 °F 57.2 °F 57% 30.06 in 10.0 mi East 8.1 mph - N/A   Scattered Clouds
2:35 PM 73.4 °F 57.2 °F 57% 30.06 in 10.0 mi ESE 6.9 mph - N/A   Scattered Clouds
2:56 PM 75.2 °F 55.4 °F 50% 30.05 in 10.0 mi SE 5.8 mph - N/A   Scattered Clouds
3:16 PM 75.2 °F 55.4 °F 50% 30.06 in 10.0 mi SE 5.8 mph - N/A   Mostly Cloudy
3:35 PM 75.2 °F 55.4 °F 50% 30.06 in 10.0 mi East 6.9 mph - N/A   Overcast
3:56 PM 75.2 °F 55.4 °F 50% 30.05 in 10.0 mi ESE 5.8 mph - N/A   Mostly Cloudy
4:16 PM 75.2 °F 55.4 °F 50% 30.04 in 10.0 mi ESE 8.1 mph - N/A   Mostly Cloudy
4:35 PM 73.4 °F 55.4 °F 53% 30.04 in 10.0 mi East 9.2 mph - N/A   Mostly Cloudy
4:56 PM 75.2 °F 53.6 °F 47% 30.04 in 10.0 mi SE 5.8 mph 9.2 mph N/A   Scattered Clouds
5:16 PM 73.4 °F 55.4 °F 53% 30.04 in 10.0 mi ESE 6.9 mph - N/A   Mostly Cloudy
5:35 PM 75.2 °F 55.4 °F 50% 30.04 in 10.0 mi ESE 9.2 mph - N/A   Mostly Cloudy
5:56 PM 75.2 °F 55.4 °F 50% 30.03 in 10.0 mi SE 8.1 mph - N/A   Scattered Clouds
6:16 PM 75.2 °F 55.4 °F 50% 30.04 in 10.0 mi SE 9.2 mph - N/A   Scattered Clouds
6:35 PM 75.2 °F 55.4 °F 50% 30.03 in 10.0 mi ESE 10.4 mph - N/A   Clear
6:56 PM 75.2 °F 55.4 °F 50% 30.03 in 10.0 mi ESE 6.9 mph - N/A   Clear
7:16 PM 75.2 °F 55.4 °F 50% 30.03 in 10.0 mi SE 8.1 mph - N/A   Clear
7:35 PM 73.4 °F 55.4 °F 53% 30.03 in 10.0 mi SE 6.9 mph - N/A   Clear
7:56 PM 73.4 °F 55.4 °F 53% 30.03 in 10.0 mi ESE 8.1 mph - N/A   Clear
8:16 PM 71.6 °F 57.2 °F 60% 30.03 in 10.0 mi ESE 4.6 mph - N/A   Clear
8:36 PM 71.6 °F 57.2 °F 60% 30.03 in 10.0 mi ESE 5.8 mph - N/A   Clear
8:56 PM 69.8 °F 59.0 °F 68% 30.03 in 10.0 mi ESE 5.8 mph - N/A   Clear
9:16 PM 68.0 °F 59.0 °F 73% 30.03 in 10.0 mi SE 3.5 mph - N/A   Clear
9:36 PM 68.0 °F 57.2 °F 68% 30.03 in 10.0 mi SE 4.6 mph - N/A   Clear
9:56 PM 66.2 °F 57.2 °F 73% 30.04 in 10.0 mi Calm Calm - N/A   Clear
10:16 PM 66.2 °F 57.2 °F 73% 30.05 in 10.0 mi Calm Calm - N/A   Clear
10:36 PM 64.4 °F 57.2 °F 77% 30.05 in 10.0 mi ESE 3.5 mph - N/A   Clear
10:55 PM 64.4 °F 57.2 °F 77% 30.06 in 10.0 mi Calm Calm - N/A   Clear
11:16 PM 64.4 °F 57.2 °F 77% 30.06 in 10.0 mi Calm Calm - N/A   Clear
11:36 PM 64.4 °F 57.2 °F 77% 30.06 in 10.0 mi Calm Calm - N/A   Clear
11:55 PM 62.6 °F 57.2 °F 82% 30.06 in 10.0 mi Calm Calm - N/A   Clear